Вернуться в каталог

STARLINK-3833

АктивенСвязьVLEO
NORAD 52578·PAYLOAD·🇺🇸 United States

Запущен May 13, 2022 с Vandenberg Space Force Base

Loading…

Ближайшие Пролёты (ближайшие 24 часа)

TLE

СвежийSource: CelesTrak SupGP

Эпоха: Sep 15, 2026, 03:01 UTC

1 52578C 22051AU  26258.12618056  .00049964  00000+0  14768-2 0  2586
2 52578  53.1603 349.0849 0001175  88.8711 319.2647 15.34352839    17

Отслеживайте STARLINK-3833 в реальном времени с AllMySat

Download on the App Store